Location: ??????
(41.3164°N, 22.6615°E)
Time: 00:56:25
(UTC+00:00)

UWE-3 - Pass Details

Date: 07 July 2022
Orbit: 583 x 677 km, 97.7° (Epoch: 16 August)

Event Time Altitude Azimuth Distance (km) Brightness Sun altitude
Rises 01:02:55 0° 26° (NNE) 2,933 ? -17.4°
Reaches altitude 10° 01:05:26 10° 39° (NE) 2,037 ? -17.1°
Maximum altitude 01:09:06 25° 95° (E) 1,321 ? -16.7°
Drops below altitude 10° 01:12:48 10° 150° (SSE) 2,069 ? -16.3°
Enters shadow 01:13:52 - 157° (SSE) 2,431 ? -16.2°
